When you browse on this site, cookies collect data to enhance your experience and personalize the content and advertising you see.
Visit our Privacy Policy to learn more. By continuing to use the site, you agree to this use of cookies and data.
  • In Portugal
  • List of Countries
  • For 7 days
  • Water Temperature
  • Satellite Maps
  • Weather Map
  • Weather Widgets
  • user-avatar
    Login

    Hourly Weather Vedenka

    Today, 19 July, Friday

    Time Temperature Precipitation Wind Pressure Humidity
    00:00 +20°C° 0.1 mm 4 mps 748 mmHg 97%
    01:00 +20°C° 0 mm 4 mps 748 mmHg 97%
    02:00 +20°C° 0 mm 4 mps 748 mmHg 97%
    03:00 +20°C° 0 mm 3 mps 748 mmHg 98%
    04:00 +20°C° 0 mm 3 mps 748 mmHg 98%
    05:00 +20°C° 0 mm 3 mps 748 mmHg 97%
    06:00 +20°C° 0 mm 3 mps 748 mmHg 97%
    07:00 +21°C° 0 mm 3 mps 749 mmHg 95%
    08:00 +21°C° 0 mm 3 mps 749 mmHg 94%
    09:00 +22°C° 0 mm 3 mps 749 mmHg 93%
    10:00 +24°C° 0.1 mm 3 mps 749 mmHg 89%
    11:00 +25°C° 0.1 mm 3 mps 749 mmHg 86%
    12:00 +26°C° 0.1 mm 3 mps 749 mmHg 82%
    13:00 +27°C° 0.7 mm 3 mps 749 mmHg 83%
    14:00 +27°C° 0.7 mm 3 mps 748 mmHg 84%
    15:00 +27°C° 0 mm 3 mps 748 mmHg 83%
    16:00 +27°C° 0.5 mm 2 mps 748 mmHg 85%
    17:00 +27°C° 0.5 mm 2 mps 749 mmHg 87%
    18:00 +27°C° 0.5 mm 1 mps 749 mmHg 89%
    19:00 +25°C° 0.3 mm 1 mps 749 mmHg 90%
    20:00 +24°C° 0.3 mm 1 mps 749 mmHg 92%
    21:00 +23°C° 0 mm 1 mps 750 mmHg 94%
    22:00 +22°C° 0.2 mm 1 mps 750 mmHg 94%
    23:00 +22°C° 0.2 mm 1 mps 750 mmHg 95%

    Tomorrow, 20 July, Saturday

    Time Temperature Precipitation Wind Pressure Humidity
    00:00 +21°C° 0.2 mm 1 mps 750 mmHg 95%
    01:00 +21°C° 0 mm 1 mps 751 mmHg 95%
    02:00 +21°C° 0 mm 1 mps 751 mmHg 95%
    03:00 +21°C° 0 mm 1 mps 751 mmHg 95%
    04:00 +21°C° 0 mm 1 mps 751 mmHg 95%
    05:00 +22°C° 0 mm 1 mps 751 mmHg 95%
    06:00 +22°C° 0 mm 1 mps 751 mmHg 95%
    07:00 +24°C° 0 mm 1 mps 751 mmHg 91%
    08:00 +25°C° 0 mm 1 mps 752 mmHg 86%
    09:00 +27°C° 0 mm 1 mps 752 mmHg 81%
    10:00 +28°C° 0.1 mm 1 mps 751 mmHg 78%
    11:00 +29°C° 0.1 mm 1 mps 751 mmHg 75%
    12:00 +30°C° 0.1 mm 2 mps 751 mmHg 72%
    13:00 +30°C° 0.1 mm 1 mps 751 mmHg 70%
    14:00 +31°C° 0.1 mm 1 mps 751 mmHg 68%
    15:00 +31°C° 0.1 mm 1 mps 750 mmHg 66%
    16:00 +31°C° 0 mm 1 mps 750 mmHg 70%
    17:00 +30°C° 0 mm 1 mps 750 mmHg 74%
    18:00 +30°C° 0 mm 1 mps 750 mmHg 79%
    19:00 +28°C° 0 mm 1 mps 750 mmHg 83%
    20:00 +27°C° 0 mm 1 mps 751 mmHg 87%
    21:00 +25°C° 0 mm 1 mps 751 mmHg 91%
    22:00 +25°C° 0 mm 2 mps 751 mmHg 92%
    23:00 +24°C° 0 mm 2 mps 751 mmHg 93%

    Day after tomorrow, 21 July, Sunday

    Time Temperature Precipitation Wind Pressure Humidity
    00:00 +24°C° 0 mm 2 mps 751 mmHg 94%
    01:00 +23°C° 0 mm 2 mps 751 mmHg 95%
    02:00 +23°C° 0 mm 1 mps 751 mmHg 95%
    03:00 +23°C° 0 mm 1 mps 751 mmHg 96%
    04:00 +23°C° 0 mm 1 mps 751 mmHg 95%
    05:00 +23°C° 0 mm 1 mps 751 mmHg 94%
    06:00 +24°C° 0 mm 1 mps 751 mmHg 94%
    07:00 +25°C° 0 mm 1 mps 751 mmHg 87%
    08:00 +27°C° 0 mm 2 mps 751 mmHg 80%
    09:00 +29°C° 0 mm 2 mps 751 mmHg 73%
    10:00 +29°C° 0.3 mm 2 mps 751 mmHg 77%
    11:00 +29°C° 0.3 mm 2 mps 751 mmHg 81%
    12:00 +29°C° 0.3 mm 2 mps 750 mmHg 85%
    13:00 +29°C° 0.1 mm 2 mps 750 mmHg 81%
    14:00 +30°C° 0.1 mm 2 mps 750 mmHg 77%
    15:00 +30°C° 0.1 mm 2 mps 749 mmHg 73%
    16:00 +30°C° 0.5 mm 2 mps 749 mmHg 77%
    17:00 +29°C° 0.5 mm 2 mps 749 mmHg 81%
    18:00 +29°C° 0.5 mm 2 mps 749 mmHg 86%
    19:00 +28°C° 0.2 mm 2 mps 749 mmHg 86%
    20:00 +26°C° 0.2 mm 3 mps 749 mmHg 87%
    21:00 +25°C° 0.2 mm 4 mps 750 mmHg 87%
    22:00 +25°C° 0 mm 3 mps 749 mmHg 87%
    23:00 +24°C° 0 mm 3 mps 749 mmHg 86%

    22 July, Monday

    Time Temperature Precipitation Wind Pressure Humidity
    00:00 +24°C° 0 mm 3 mps 749 mmHg 85%
    01:00 +24°C° 0 mm 3 mps 748 mmHg 84%
    02:00 +23°C° 0 mm 4 mps 748 mmHg 82%
    03:00 +23°C° 0 mm 4 mps 747 mmHg 81%
    04:00 +25°C° 0 mm 4 mps 746 mmHg 79%
    05:00 +25°C° 0 mm 4 mps 746 mmHg 78%
    06:00 +25°C° 0 mm 4 mps 745 mmHg 76%
    07:00 +23°C° 1.5 mm 4 mps 745 mmHg 83%
    08:00 +22°C° 1.5 mm 4 mps 744 mmHg 89%
    09:00 +22°C° 1.5 mm 4 mps 744 mmHg 96%
    10:00 +21°C° 2.1 mm 5 mps 743 mmHg 96%
    11:00 +21°C° 2.1 mm 5 mps 742 mmHg 95%
    12:00 +21°C° 2.1 mm 5 mps 742 mmHg 95%
    13:00 +21°C° 0.6 mm 5 mps 742 mmHg 95%
    14:00 +21°C° 0.6 mm 4 mps 741 mmHg 95%
    15:00 +22°C° 0.6 mm 3 mps 741 mmHg 95%
    16:00 +21°C° 0.5 mm 4 mps 741 mmHg 96%
    17:00 +21°C° 0.5 mm 4 mps 741 mmHg 97%
    18:00 +21°C° 0.5 mm 4 mps 741 mmHg 98%
    19:00 +21°C° 0.1 mm 3 mps 742 mmHg 98%
    20:00 +21°C° 0.1 mm 3 mps 742 mmHg 98%
    21:00 +21°C° 0.1 mm 3 mps 743 mmHg 98%
    22:00 +21°C° 0 mm 3 mps 742 mmHg 98%
    23:00 +21°C° 0 mm 3 mps 742 mmHg 98%

    23 July, Tuesday

    Time Temperature Precipitation Wind Pressure Humidity
    00:00 +21°C° 0 mm 3 mps 742 mmHg 97%
    01:00 +21°C° 0 mm 2 mps 742 mmHg 97%
    02:00 +20°C° 0 mm 2 mps 742 mmHg 97%
    03:00 +20°C° 0 mm 2 mps 742 mmHg 97%
    04:00 +21°C° 0.3 mm 3 mps 742 mmHg 96%
    05:00 +21°C° 0.3 mm 3 mps 742 mmHg 96%
    06:00 +21°C° 0.3 mm 4 mps 742 mmHg 96%
    07:00 +23°C° 0 mm 4 mps 742 mmHg 91%
    08:00 +25°C° 0 mm 5 mps 742 mmHg 86%
    09:00 +27°C° 0 mm 5 mps 742 mmHg 81%
    10:00 +28°C° 0 mm 5 mps 742 mmHg 76%
    11:00 +30°C° 0 mm 5 mps 742 mmHg 71%
    12:00 +32°C° 0 mm 5 mps 742 mmHg 66%
    13:00 +32°C° 0 mm 5 mps 742 mmHg 66%
    14:00 +32°C° 0 mm 5 mps 742 mmHg 65%
    15:00 +33°C° 0 mm 5 mps 742 mmHg 65%
    16:00 +32°C° 0 mm 4 mps 742 mmHg 71%
    17:00 +30°C° 0 mm 3 mps 742 mmHg 77%
    18:00 +29°C° 0 mm 2 mps 742 mmHg 83%
    19:00 +28°C° 0.4 mm 2 mps 742 mmHg 86%
    20:00 +27°C° 0.4 mm 2 mps 743 mmHg 89%
    21:00 +26°C° 0.4 mm 2 mps 743 mmHg 92%
    22:00 +26°C° 3.8 mm 3 mps 743 mmHg 93%
    23:00 +25°C° 3.8 mm 4 mps 743 mmHg 94%

    24 July, Wednesday

    Time Temperature Precipitation Wind Pressure Humidity
    00:00 +23°C° 3.8 mm 6 mps 743 mmHg 95%
    01:00 +22°C° 0.2 mm 4 mps 743 mmHg 96%
    02:00 +22°C° 0.2 mm 3 mps 743 mmHg 96%
    03:00 +23°C° 0.2 mm 2 mps 743 mmHg 97%
    04:00 +23°C° 0 mm 1 mps 743 mmHg 97%
    05:00 +23°C° 0 mm 1 mps 743 mmHg 97%
    06:00 +23°C° 0 mm 1 mps 743 mmHg 96%
    07:00 +24°C° 0.2 mm 1 mps 742 mmHg 95%
    08:00 +24°C° 0.2 mm 1 mps 742 mmHg 94%
    09:00 +25°C° 0.2 mm 1 mps 742 mmHg 93%
    10:00 +25°C° 0.3 mm 1 mps 742 mmHg 93%
    11:00 +25°C° 0.3 mm 1 mps 742 mmHg 92%
    12:00 +26°C° 0.3 mm 1 mps 742 mmHg 91%
    13:00 +26°C° 0.9 mm 1 mps 742 mmHg 92%
    14:00 +26°C° 0.9 mm 2 mps 741 mmHg 93%
    15:00 +26°C° 0.9 mm 2 mps 741 mmHg 93%
    16:00 +26°C° 1 mm 2 mps 741 mmHg 93%
    17:00 +26°C° 1 mm 1 mps 741 mmHg 93%
    18:00 +26°C° 1 mm 1 mps 741 mmHg 93%
    19:00 +25°C° 0.9 mm 1 mps 741 mmHg 94%
    20:00 +24°C° 0.9 mm 2 mps 742 mmHg 95%
    21:00 +23°C° 0.9 mm 2 mps 742 mmHg 97%
    22:00 +23°C° 0.4 mm 2 mps 742 mmHg 97%
    23:00 +23°C° 0.4 mm 2 mps 742 mmHg 97%
    Show more